When you browse on this site, cookies collect data to enhance your experience and personalize the content and advertising you see.
Visit our Privacy Policy to learn more. By continuing to use the site, you agree to this use of cookies and data.
  • In Portugal
  • List of Countries
  • For 7 days
  • Water Temperature
  • Satellite Maps
  • Weather Map
  • Weather Widgets
  • user-avatar
    Login

    Hourly Weather Mohnachi

    Today, 22 July, Monday

    Time Temperature Precipitation Wind Pressure Humidity
    00:00 +16°C° 0 mm 2 mps 746 mmHg 77%
    01:00 +16°C° 0 mm 2 mps 746 mmHg 79%
    02:00 +15°C° 0 mm 2 mps 746 mmHg 80%
    03:00 +15°C° 0 mm 2 mps 746 mmHg 82%
    04:00 +15°C° 0 mm 2 mps 745 mmHg 85%
    05:00 +15°C° 0 mm 2 mps 745 mmHg 87%
    06:00 +17°C° 0 mm 2 mps 745 mmHg 85%
    07:00 +18°C° 0 mm 3 mps 745 mmHg 83%
    08:00 +20°C° 0 mm 3 mps 745 mmHg 81%
    09:00 +20°C° 0.8 mm 3 mps 744 mmHg 81%
    10:00 +21°C° 0.8 mm 2 mps 744 mmHg 80%
    11:00 +23°C° 0.8 mm 2 mps 744 mmHg 80%
    12:00 +21°C° 1.1 mm 2 mps 744 mmHg 84%
    13:00 +20°C° 1.1 mm 2 mps 744 mmHg 88%
    14:00 +20°C° 1.1 mm 1 mps 743 mmHg 92%
    15:00 +19°C° 2.3 mm 1 mps 743 mmHg 94%
    16:00 +19°C° 2.3 mm 1 mps 743 mmHg 95%
    17:00 +18°C° 2.3 mm 1 mps 743 mmHg 96%
    18:00 +18°C° 0.2 mm 1 mps 743 mmHg 96%
    19:00 +18°C° 0.2 mm 1 mps 742 mmHg 97%
    20:00 +18°C° 0.2 mm 1 mps 742 mmHg 97%
    21:00 +16°C° 0 mm 1 mps 742 mmHg 97%
    22:00 +16°C° 0 mm 1 mps 742 mmHg 97%
    23:00 +16°C° 0 mm 1 mps 742 mmHg 98%

    Tomorrow, 23 July, Tuesday

    Time Temperature Precipitation Wind Pressure Humidity
    00:00 +16°C° 0 mm 1 mps 741 mmHg 98%
    01:00 +16°C° 0 mm 2 mps 741 mmHg 98%
    02:00 +16°C° 0 mm 2 mps 741 mmHg 98%
    03:00 +16°C° 0 mm 2 mps 741 mmHg 98%
    04:00 +16°C° 0 mm 2 mps 741 mmHg 98%
    05:00 +16°C° 0 mm 2 mps 741 mmHg 98%
    06:00 +16°C° 0 mm 3 mps 741 mmHg 97%
    07:00 +16°C° 0 mm 3 mps 741 mmHg 97%
    08:00 +16°C° 0 mm 3 mps 741 mmHg 96%
    09:00 +15°C° 0.1 mm 4 mps 741 mmHg 96%
    10:00 +17°C° 0.1 mm 4 mps 741 mmHg 95%
    11:00 +17°C° 0.1 mm 4 mps 741 mmHg 95%
    12:00 +17°C° 0.1 mm 4 mps 741 mmHg 93%
    13:00 +18°C° 0.1 mm 4 mps 741 mmHg 91%
    14:00 +18°C° 0.1 mm 4 mps 741 mmHg 90%
    15:00 +18°C° 0 mm 4 mps 741 mmHg 89%
    16:00 +18°C° 0 mm 4 mps 742 mmHg 88%
    17:00 +19°C° 0 mm 4 mps 742 mmHg 87%
    18:00 +18°C° 0 mm 4 mps 742 mmHg 90%
    19:00 +17°C° 0 mm 3 mps 742 mmHg 92%
    20:00 +17°C° 0 mm 3 mps 741 mmHg 94%
    21:00 +16°C° 0 mm 3 mps 742 mmHg 94%
    22:00 +16°C° 0 mm 3 mps 742 mmHg 95%
    23:00 +14°C° 0 mm 3 mps 743 mmHg 95%

    Day after tomorrow, 24 July, Wednesday

    Time Temperature Precipitation Wind Pressure Humidity
    00:00 +14°C° 0 mm 3 mps 742 mmHg 95%
    01:00 +13°C° 0 mm 3 mps 742 mmHg 95%
    02:00 +13°C° 0 mm 3 mps 742 mmHg 96%
    03:00 +13°C° 0 mm 3 mps 743 mmHg 95%
    04:00 +12°C° 0 mm 3 mps 743 mmHg 95%
    05:00 +12°C° 0 mm 3 mps 743 mmHg 95%
    06:00 +14°C° 0 mm 4 mps 743 mmHg 90%
    07:00 +17°C° 0 mm 4 mps 743 mmHg 85%
    08:00 +18°C° 0 mm 4 mps 743 mmHg 81%
    09:00 +20°C° 0 mm 5 mps 744 mmHg 76%
    10:00 +21°C° 0 mm 5 mps 744 mmHg 71%
    11:00 +22°C° 0 mm 5 mps 744 mmHg 66%
    12:00 +22°C° 0.2 mm 5 mps 744 mmHg 66%
    13:00 +22°C° 0.2 mm 5 mps 744 mmHg 66%
    14:00 +23°C° 0.2 mm 5 mps 744 mmHg 67%
    15:00 +23°C° 0.3 mm 5 mps 744 mmHg 69%
    16:00 +23°C° 0.3 mm 4 mps 744 mmHg 71%
    17:00 +22°C° 0.3 mm 3 mps 744 mmHg 73%
    18:00 +21°C° 0.1 mm 3 mps 744 mmHg 76%
    19:00 +19°C° 0.1 mm 3 mps 744 mmHg 79%
    20:00 +18°C° 0.1 mm 3 mps 744 mmHg 82%
    21:00 +17°C° 0 mm 3 mps 744 mmHg 83%
    22:00 +17°C° 0 mm 4 mps 745 mmHg 84%
    23:00 +15°C° 0 mm 4 mps 745 mmHg 85%

    25 July, Thursday

    Time Temperature Precipitation Wind Pressure Humidity
    00:00 +15°C° 0 mm 4 mps 745 mmHg 86%
    01:00 +14°C° 0 mm 4 mps 745 mmHg 87%
    02:00 +14°C° 0 mm 4 mps 745 mmHg 88%
    03:00 +14°C° 0 mm 4 mps 745 mmHg 89%
    04:00 +14°C° 0 mm 4 mps 745 mmHg 90%
    05:00 +14°C° 0 mm 4 mps 745 mmHg 92%
    06:00 +15°C° 0 mm 4 mps 746 mmHg 89%
    07:00 +16°C° 0 mm 5 mps 746 mmHg 85%
    08:00 +19°C° 0 mm 5 mps 746 mmHg 82%
    09:00 +20°C° 0 mm 5 mps 747 mmHg 79%
    10:00 +21°C° 0 mm 5 mps 747 mmHg 75%
    11:00 +23°C° 0 mm 5 mps 747 mmHg 72%
    12:00 +25°C° 0 mm 5 mps 747 mmHg 70%
    13:00 +25°C° 0 mm 5 mps 747 mmHg 67%
    14:00 +26°C° 0 mm 5 mps 747 mmHg 65%
    15:00 +26°C° 0 mm 4 mps 747 mmHg 68%
    16:00 +26°C° 0 mm 4 mps 747 mmHg 70%
    17:00 +26°C° 0 mm 3 mps 747 mmHg 73%
    18:00 +24°C° 0 mm 3 mps 747 mmHg 76%
    19:00 +21°C° 0 mm 3 mps 747 mmHg 80%
    20:00 +20°C° 0 mm 3 mps 747 mmHg 83%
    21:00 +19°C° 0 mm 3 mps 748 mmHg 85%
    22:00 +18°C° 0 mm 3 mps 748 mmHg 87%
    23:00 +17°C° 0 mm 3 mps 748 mmHg 89%

    26 July, Friday

    Time Temperature Precipitation Wind Pressure Humidity
    00:00 +17°C° 0 mm 2 mps 748 mmHg 90%
    01:00 +16°C° 0 mm 2 mps 748 mmHg 91%
    02:00 +16°C° 0 mm 2 mps 748 mmHg 92%
    03:00 +16°C° 0 mm 2 mps 748 mmHg 93%
    04:00 +16°C° 0 mm 3 mps 748 mmHg 94%
    05:00 +16°C° 0 mm 3 mps 748 mmHg 94%
    06:00 +18°C° 0 mm 3 mps 748 mmHg 90%
    07:00 +19°C° 0 mm 3 mps 748 mmHg 86%
    08:00 +21°C° 0 mm 4 mps 748 mmHg 81%
    09:00 +22°C° 0 mm 4 mps 748 mmHg 75%
    10:00 +23°C° 0 mm 4 mps 748 mmHg 69%
    11:00 +26°C° 0 mm 4 mps 748 mmHg 63%
    12:00 +26°C° 0.1 mm 4 mps 748 mmHg 65%
    13:00 +26°C° 0.1 mm 4 mps 747 mmHg 67%
    14:00 +25°C° 0.1 mm 4 mps 747 mmHg 69%
    15:00 +26°C° 0.1 mm 3 mps 747 mmHg 70%
    16:00 +26°C° 0.1 mm 3 mps 746 mmHg 71%
    17:00 +26°C° 0.1 mm 3 mps 746 mmHg 72%
    18:00 +24°C° 0 mm 3 mps 746 mmHg 76%
    19:00 +23°C° 0 mm 2 mps 746 mmHg 80%
    20:00 +20°C° 0 mm 2 mps 746 mmHg 84%
    21:00 +20°C° 0 mm 2 mps 746 mmHg 86%
    22:00 +19°C° 0 mm 2 mps 746 mmHg 87%
    23:00 +18°C° 0 mm 2 mps 746 mmHg 89%

    27 July, Saturday

    Time Temperature Precipitation Wind Pressure Humidity
    00:00 +18°C° 0 mm 2 mps 746 mmHg 90%
    01:00 +17°C° 0 mm 2 mps 746 mmHg 91%
    02:00 +17°C° 0 mm 2 mps 746 mmHg 92%
    03:00 +17°C° 0 mm 2 mps 746 mmHg 93%
    04:00 +17°C° 0 mm 2 mps 746 mmHg 93%
    05:00 +17°C° 0 mm 2 mps 745 mmHg 94%
    06:00 +18°C° 0 mm 2 mps 745 mmHg 88%
    07:00 +20°C° 0 mm 2 mps 745 mmHg 82%
    08:00 +21°C° 0 mm 2 mps 745 mmHg 77%
    09:00 +23°C° 0 mm 2 mps 745 mmHg 71%
    10:00 +24°C° 0 mm 2 mps 745 mmHg 66%
    11:00 +25°C° 0 mm 2 mps 745 mmHg 60%
    12:00 +26°C° 0 mm 2 mps 745 mmHg 59%
    13:00 +26°C° 0 mm 1 mps 745 mmHg 58%
    14:00 +27°C° 0 mm 1 mps 744 mmHg 57%
    15:00 +27°C° 0 mm 1 mps 744 mmHg 60%
    16:00 +27°C° 0 mm 2 mps 744 mmHg 63%
    17:00 +27°C° 0 mm 2 mps 743 mmHg 66%
    18:00 +25°C° 0 mm 2 mps 743 mmHg 71%
    19:00 +24°C° 0 mm 2 mps 743 mmHg 77%
    20:00 +21°C° 0 mm 2 mps 743 mmHg 82%
    21:00 +20°C° 0 mm 2 mps 743 mmHg 84%
    22:00 +19°C° 0 mm 3 mps 742 mmHg 86%
    23:00 +19°C° 0 mm 3 mps 742 mmHg 88%
    Show more